(35733) = 1997 WE57 = 1999 GW8

Discovered at Anderson Mesa on 1999-04-10 by LONEOS.

Orbit

Orbit type: Main Belt

Note: WebGL enabled browser required.

epoch2023-09-13.0
epoch JD2460200.5
perihelion date2022-09-02.07874
perihelion JD2459824.57874
argument of perihelion (°)61.37479
ascending node (°)102.81841
inclination (°)4.72226
eccentricity0.0409896
perihelion distance (AU)2.1670555
Tisserand w.r.t. Jupiter3.6
ΔV w.r.t. Earth (km/sec)9.2
semimajor axis (AU)2.2596787
mean anomaly (°)109.07637
mean daily motion (°/day)0.29015750
aphelion distance (AU)2.352
period (years)3.4
P-vector [x]-0.95928031
P-vector [y]0.22177890
P-vector [z]0.17491543
Q-vector [x]-0.27080875
Q-vector [y]-0.89814556
Q-vector [z]-0.34640608
absolute magnitude15.76
phase slope0.15
uncertainty0
referenceMPEC 2024-A55
observations used1531
oppositions18
arc length (days)9356
first opposition used1997
last opposition used2023
residual rms (arc-secs)0.69
perturbers coarse indicatorM-v
perturbers precise indicator003Ek
first observation date used1997-11-29.0
last observation date used2023-07-11.0
computer nameMPCLINUX
JD of orbit computation2456966.823505
perihelion JD uncertainty (days)1.6113E-04
argument of perihelion uncertainty (°)6.9246E-05
ascending node uncertainty (°)5.0859E-05
inclination uncertainty (°)3.3269E-06
eccentricity uncertainty 4.4123E-08
perihelion distance uncertainty (AU)1.0376E-07
Minimum Orbit Intersection Distances (in AU)
for orbit epoch: 2460200.5, reference: E2024-A55
Mercury1.75863
Venus1.44791
Earth1.17795
Mars0.5064
Jupiter2.61565
Saturn6.80995
Uranus16.2836
Neptune27.5124

Observations

1561 total observations over interval: 1997 11 29.14031 – 2023 07 11.848075
These data are available for download (format description).

Date (UT) J2000 RA J2000 Dec Magn Location Ref
1997 11 29.14031 03 12 16.96 +11 45 50.8 19.2   704 – Lincoln Laboratory ETS, New Mexico MPS 4802
1997 11 29.17443 03 12 15.08 +11 45 51.2 19.3   704 – Lincoln Laboratory ETS, New Mexico MPS 4802
1997 11 29.19323 03 12 13.88 +11 45 47.5 18.7   704 – Lincoln Laboratory ETS, New Mexico MPS 4802
1997 11 29.21193 03 12 12.78 +11 45 47.2 18.8   704 – Lincoln Laboratory ETS, New Mexico MPS 4802
1997 11 29.23321 03 12 11.61 +11 45 45.9 19.1   704 – Lincoln Laboratory ETS, New Mexico MPS 4802
1997 12 04.21543 03 07 39.35 +11 41 43.4 18.9   704 – Lincoln Laboratory ETS, New Mexico MPS 4802
1997 12 04.25905 03 07 36.91 +11 41 44.0 19.1   704 – Lincoln Laboratory ETS, New Mexico MPS 4802
1997 12 04.27565 03 07 36.00 +11 41 44.0 19.1   704 – Lincoln Laboratory ETS, New Mexico MPS 4802
1998 02 16.47731 03 26 16.62 +16 39 42.0   327 – Peking Observatory, Xinglong Station MPS 4802
1998 02 16.48072 03 26 16.85 +16 39 43.8 20.4   327 – Peking Observatory, Xinglong Station MPS 4802
1998 02 16.48417 03 26 17.21 +16 39 45.5   327 – Peking Observatory, Xinglong Station MPS 4802
1998 02 16.48757 03 26 17.33 +16 39 47.3   327 – Peking Observatory, Xinglong Station MPS 4803
1999 03 25.36427 14 34 26.00 -06 51 47.5 18.2 R 699 – Lowell Observatory-LONEOS MPS 59471
1999 03 25.38465 14 34 25.38 -06 51 42.7   699 – Lowell Observatory-LONEOS MPS 59471
1999 03 25.40504 14 34 24.85 -06 51 38.0   699 – Lowell Observatory-LONEOS MPS 59471
1999 04 10.36049 14 23 57.27 -05 36 17.3 18.8 R 699 – Lowell Observatory-LONEOS MPS 4576
1999 04 10.38603 14 23 55.91 -05 36 09.1   699 – Lowell Observatory-LONEOS MPS 4576
1999 04 10.41170 14 23 54.66 -05 36 02.3   699 – Lowell Observatory-LONEOS MPS 4576
1999 04 11.37211 14 23 05.10 -05 31 13.2 18.0 R 699 – Lowell Observatory-LONEOS MPS 4576
1999 04 11.39249 14 23 03.98 -05 31 08.2   699 – Lowell Observatory-LONEOS MPS 4576
1999 04 11.41289 14 23 02.91 -05 31 02.3   699 – Lowell Observatory-LONEOS MPS 4576
1999 04 12.38243 14 22 11.73 -05 26 13.1 18.4   704 – Lincoln Laboratory ETS, New Mexico MPS 4878
1999 04 12.39968 14 22 10.82 -05 26 08.4 18.7   704 – Lincoln Laboratory ETS, New Mexico MPS 4878
1999 04 12.41693 14 22 09.92 -05 26 02.5 19.1   704 – Lincoln Laboratory ETS, New Mexico MPS 4878
1999 04 12.43420 14 22 09.02 -05 25 58.2 19.3   704 – Lincoln Laboratory ETS, New Mexico MPS 4878
1999 04 12.45148 14 22 07.78 -05 25 54.2 19.4   704 – Lincoln Laboratory ETS, New Mexico MPS 4878
1999 04 16.42269 14 18 29.29 -05 06 20.6 18.4   704 – Lincoln Laboratory ETS, New Mexico MPS 5906
1999 04 16.43376 14 18 28.75 -05 06 17.7 18.9   704 – Lincoln Laboratory ETS, New Mexico MPS 5906
1999 04 16.44480 14 18 28.00 -05 06 14.3 19.1   704 – Lincoln Laboratory ETS, New Mexico MPS 5906
1999 04 16.46600 14 18 26.46 -05 06 06.6 19.2   704 – Lincoln Laboratory ETS, New Mexico MPS 5906
1999 05 12.16913 13 54 24.81 -03 37 45.1 19.0   704 – Lincoln Laboratory ETS, New Mexico MPS 4878
1999 05 12.18215 13 54 24.21 -03 37 41.8 18.9   704 – Lincoln Laboratory ETS, New Mexico MPS 4878
1999 05 12.19518 13 54 23.61 -03 37 43.5 18.9   704 – Lincoln Laboratory ETS, New Mexico MPS 4878
1999 05 12.20818 13 54 23.01 -03 37 40.8 18.7   704 – Lincoln Laboratory ETS, New Mexico MPS 4878
1999 05 12.22113 13 54 22.41 -03 37 41.6 18.7   704 – Lincoln Laboratory ETS, New Mexico MPS 4878
1999 05 13.15631 13 53 39.20 -03 36 24.6 18.2   704 – Lincoln Laboratory ETS, New Mexico MPS 4878
1999 05 13.17104 13 53 38.41 -03 36 25.1 19.5   704 – Lincoln Laboratory ETS, New Mexico MPS 4878
1999 05 13.18607 13 53 37.70 -03 36 20.7 19.0   704 – Lincoln Laboratory ETS, New Mexico MPS 4878
1999 05 13.20091 13 53 37.10 -03 36 23.3 19.0   704 – Lincoln Laboratory ETS, New Mexico MPS 4878
1999 05 17.20231 13 50 45.71 -03 32 58.5 18.5   704 – Lincoln Laboratory ETS, New Mexico MPS 4878
1999 05 17.21452 13 50 45.23 -03 32 58.3 18.4   704 – Lincoln Laboratory ETS, New Mexico MPS 4878
1999 05 17.22673 13 50 44.61 -03 32 58.2 18.4   704 – Lincoln Laboratory ETS, New Mexico MPS 4878
1999 05 17.25120 13 50 43.42 -03 32 57.9 18.9   704 – Lincoln Laboratory ETS, New Mexico MPS 4878
1999 05 18.16456 13 50 08.13 -03 32 38.9 19.6   704 – Lincoln Laboratory ETS, New Mexico MPS 5557
1999 05 18.17846 13 50 07.55 -03 32 39.4 18.8   704 – Lincoln Laboratory ETS, New Mexico MPS 5557
1999 05 18.19238 13 50 06.98 -03 32 39.2 18.8   704 – Lincoln Laboratory ETS, New Mexico MPS 5557
1999 05 18.20635 13 50 06.38 -03 32 37.3 19.1   704 – Lincoln Laboratory ETS, New Mexico MPS 5557
2000 08 28.30166 00 21 58.19 -05 35 49.2 18.7   704 – Lincoln Laboratory ETS, New Mexico MPS 17546
2000 08 28.33431 00 21 56.98 -05 36 02.7 19.1   704 – Lincoln Laboratory ETS, New Mexico MPS 17546
2000 08 28.34894 00 21 56.42 -05 36 07.7 19.2   704 – Lincoln Laboratory ETS, New Mexico MPS 17546
2000 08 28.36533 00 21 55.83 -05 36 14.0 18.9   704 – Lincoln Laboratory ETS, New Mexico MPS 17546
2000 08 31.38932 00 20 00.71 -05 56 41.0 19.0   704 – Lincoln Laboratory ETS, New Mexico MPS 17546
2000 08 31.40248 00 20 00.14 -05 56 46.7 18.8   704 – Lincoln Laboratory ETS, New Mexico MPS 17546
2000 08 31.41673 00 19 59.47 -05 56 52.0 18.9   704 – Lincoln Laboratory ETS, New Mexico MPS 17546
2000 08 31.42979 00 19 59.01 -05 56 57.8 18.9   704 – Lincoln Laboratory ETS, New Mexico MPS 17546
2000 08 31.44296 00 19 58.41 -05 57 02.9 19.2   704 – Lincoln Laboratory ETS, New Mexico MPS 17546
2000 09 05.33012 00 16 25.98 -06 31 32.5 19.0   704 – Lincoln Laboratory ETS, New Mexico MPS 17546
2000 09 05.34388 00 16 25.32 -06 31 38.7 19.0   704 – Lincoln Laboratory ETS, New Mexico MPS 17546
2000 09 05.35718 00 16 24.69 -06 31 44.2 19.3   704 – Lincoln Laboratory ETS, New Mexico MPS 17546
2000 09 05.37073 00 16 23.97 -06 31 49.8 19.3   704 – Lincoln Laboratory ETS, New Mexico MPS 17546
2000 09 05.38476 00 16 23.28 -06 31 56.5 18.9   704 – Lincoln Laboratory ETS, New Mexico MPS 17546
2000 09 09.25080 00 13 15.28 -06 59 56.3 18.8 R 699 – Lowell Observatory-LONEOS MPS 29922
2000 09 09.26629 00 13 14.55 -07 00 01.3   699 – Lowell Observatory-LONEOS MPS 29922
2000 09 09.28178 00 13 13.61 -07 00 08.6   699 – Lowell Observatory-LONEOS MPS 29922
2000 09 09.29719 00 13 12.82 -07 00 16.0   699 – Lowell Observatory-LONEOS MPS 29922
2000 09 24.26272 23 59 26.75 -08 44 11.6 18.6   704 – Lincoln Laboratory ETS, New Mexico MPS 19035
2000 09 24.26284 23 59 26.75 -08 44 11.0 18.6   704 – Lincoln Laboratory ETS, New Mexico MPS 19035
2000 09 24.27853 23 59 25.80 -08 44 17.8 19.3   704 – Lincoln Laboratory ETS, New Mexico MPS 19035
2000 09 24.27865 23 59 25.84 -08 44 17.4 19.1   704 – Lincoln Laboratory ETS, New Mexico MPS 19035
2000 09 24.29368 23 59 24.93 -08 44 22.9 18.9   704 – Lincoln Laboratory ETS, New Mexico MPS 19035
2000 09 24.29380 23 59 24.96 -08 44 22.3 19.4   704 – Lincoln Laboratory ETS, New Mexico MPS 19035
2000 09 24.30835 23 59 24.05 -08 44 28.1 19.5   704 – Lincoln Laboratory ETS, New Mexico MPS 19035
2000 09 24.32300 23 59 23.21 -08 44 34.8 19.4   704 – Lincoln Laboratory ETS, New Mexico MPS 19035
2000 09 24.32312 23 59 23.16 -08 44 34.7 19.2   704 – Lincoln Laboratory ETS, New Mexico MPS 19035
2000 09 26.298420 23 57 30.958 -08 56 42.76 18.79 V 645 – Apache Point-Sloan Digital Sky Survey MPS 81072
2000 09 26.301892 23 57 30.758 -08 56 44.05 19.67   645 – Apache Point-Sloan Digital Sky Survey MPS 81072
2000 10 02.18995 23 52 05.86 -09 29 15.9 18.7 R 699 – Lowell Observatory-LONEOS MPS 20771
2000 10 02.20939 23 52 04.66 -09 29 22.7   699 – Lowell Observatory-LONEOS MPS 20771
2000 10 02.22878 23 52 03.58 -09 29 28.3   699 – Lowell Observatory-LONEOS MPS 20771
2000 10 02.24815 23 52 02.56 -09 29 34.2   699 – Lowell Observatory-LONEOS MPS 20771
2000 10 02.26549 23 52 01.55 -09 29 38.5 18.6   704 – Lincoln Laboratory ETS, New Mexico MPS 19035
2000 10 02.28028 23 52 00.76 -09 29 42.9 18.9   704 – Lincoln Laboratory ETS, New Mexico MPS 19035
2000 10 02.29561 23 51 59.90 -09 29 47.6 18.7   704 – Lincoln Laboratory ETS, New Mexico MPS 19035
2000 10 02.32725 23 51 58.16 -09 29 56.9 19.3   704 – Lincoln Laboratory ETS, New Mexico MPS 19035
2000 11 27.079280 23 39 42.020 -08 40 43.06 20.10 V 645 – Apache Point-Sloan Digital Sky Survey MPS 81072
